Year,Month,Day,Hour,Minute,Value (Times are PST for temperature in C)
2015,06,27,09,08,20.40
2015,06,27,09,09,20.40
2015,06,27,09,10,20.40
2015,06,27,09,11,20.40
2015,06,27,09,12,20.40
2015,06,27,09,13,20.40
2015,06,27,09,14,20.40
2015,06,27,09,15,20.40
2015,06,27,09,16,20.40
2015,06,27,09,17,20.40
2015,06,27,09,18,20.30
2015,06,27,09,19,20.20
2015,06,27,09,20,20.10
2015,06,27,09,21,20.10
2015,06,27,09,22,20.10
2015,06,27,09,23,20.10
2015,06,27,09,24,20.20
2015,06,27,09,25,20.20
2015,06,27,09,26,20.30
2015,06,27,09,27,20.30
2015,06,27,09,28,20.30
2015,06,27,09,29,20.40
2015,06,27,09,30,20.40
2015,06,27,09,31,20.50
2015,06,27,09,32,20.50
2015,06,27,09,33,20.60
2015,06,27,09,34,20.60
2015,06,27,09,35,20.70
2015,06,27,09,36,20.70
2015,06,27,09,37,20.70
2015,06,27,09,38,20.70
2015,06,27,09,39,20.70
2015,06,27,09,40,20.60
2015,06,27,09,41,20.60
2015,06,27,09,42,20.60
2015,06,27,09,43,20.60
2015,06,27,09,44,20.50
2015,06,27,09,45,20.40
2015,06,27,09,46,20.40
2015,06,27,09,47,20.40
2015,06,27,09,48,20.40
2015,06,27,09,49,20.50
2015,06,27,09,50,20.50
2015,06,27,09,51,20.60
2015,06,27,09,52,20.60
2015,06,27,09,53,20.60
2015,06,27,09,54,20.60
2015,06,27,09,55,20.60
2015,06,27,09,56,20.60
2015,06,27,09,57,20.60
2015,06,27,09,58,20.60
2015,06,27,09,59,20.70
2015,06,27,10,00,20.70
2015,06,27,10,01,20.70
2015,06,27,10,02,20.70
2015,06,27,10,03,20.80
2015,06,27,10,04,20.80
2015,06,27,10,05,20.90
2015,06,27,10,06,20.90
2015,06,27,10,07,20.90
2015,06,27,10,08,20.90
2015,06,27,10,09,21.00
2015,06,27,10,10,21.00
2015,06,27,10,11,21.00
2015,06,27,10,12,21.00
2015,06,27,10,13,21.10
2015,06,27,10,14,21.10
2015,06,27,10,15,21.20
2015,06,27,10,16,21.30
2015,06,27,10,17,21.40
2015,06,27,10,18,21.50
2015,06,27,10,19,21.60
2015,06,27,10,20,21.60
2015,06,27,10,21,21.60
2015,06,27,10,22,21.60
2015,06,27,10,23,21.70
2015,06,27,10,24,21.80
2015,06,27,10,25,21.90
2015,06,27,10,26,21.90
2015,06,27,10,27,22.10
2015,06,27,10,28,22.10
2015,06,27,10,29,22.20
2015,06,27,10,30,22.20
2015,06,27,10,31,22.30
2015,06,27,10,32,22.40
2015,06,27,10,33,22.50
2015,06,27,10,34,22.50
2015,06,27,10,35,22.60
2015,06,27,10,36,22.60
2015,06,27,10,37,22.40
2015,06,27,10,38,22.30
2015,06,27,10,39,22.30
2015,06,27,10,40,22.30
2015,06,27,10,41,22.30
2015,06,27,10,42,22.20
2015,06,27,10,43,22.30
2015,06,27,10,44,22.30
2015,06,27,10,45,22.20
2015,06,27,10,46,22.20
2015,06,27,10,47,22.30
2015,06,27,10,48,22.40
2015,06,27,10,49,22.40
2015,06,27,10,50,22.50
2015,06,27,10,51,22.50
2015,06,27,10,52,22.60
2015,06,27,10,53,22.60
2015,06,27,10,54,22.70
2015,06,27,10,55,22.80
2015,06,27,10,56,22.80
2015,06,27,10,57,22.90
2015,06,27,10,58,22.90
2015,06,27,10,59,22.90
2015,06,27,11,00,22.90
2015,06,27,11,01,22.90
2015,06,27,11,02,23.00
2015,06,27,11,03,23.00
2015,06,27,11,04,23.00
2015,06,27,11,05,23.00
2015,06,27,11,06,23.00
2015,06,27,11,07,23.10
2015,06,27,11,08,23.10
2015,06,27,11,09,23.30
2015,06,27,11,10,23.30
2015,06,27,11,11,23.40
2015,06,27,11,12,23.40
2015,06,27,11,13,23.40
2015,06,27,11,14,23.40
2015,06,27,11,15,23.40
2015,06,27,11,16,23.40
2015,06,27,11,17,23.40
2015,06,27,11,18,23.40
2015,06,27,11,19,23.30
2015,06,27,11,20,23.20
2015,06,27,11,21,23.20
2015,06,27,11,22,23.20
2015,06,27,11,23,23.10
2015,06,27,11,24,23.10
2015,06,27,11,25,23.10
2015,06,27,11,26,23.10
2015,06,27,11,27,23.00
2015,06,27,11,28,22.90
2015,06,27,11,29,22.90
2015,06,27,11,30,22.90
2015,06,27,11,31,22.90
2015,06,27,11,32,22.80
2015,06,27,11,33,22.80
2015,06,27,11,34,22.90
2015,06,27,11,35,22.90
2015,06,27,11,36,22.90
2015,06,27,11,37,22.90
2015,06,27,11,38,22.90
2015,06,27,11,39,23.00
2015,06,27,11,40,23.00
2015,06,27,11,41,22.90
2015,06,27,11,42,22.90
2015,06,27,11,43,22.80
2015,06,27,11,44,22.80
2015,06,27,11,45,22.80
2015,06,27,11,46,22.80
2015,06,27,11,47,22.90
2015,06,27,11,48,23.00
2015,06,27,11,49,23.00
2015,06,27,11,50,23.10
2015,06,27,11,51,23.00
2015,06,27,11,52,23.00
2015,06,27,11,53,23.00
2015,06,27,11,54,23.00
2015,06,27,11,55,23.00
2015,06,27,11,56,23.10
2015,06,27,11,57,23.20
2015,06,27,11,58,23.30
2015,06,27,11,59,23.30
2015,06,27,12,00,23.30
2015,06,27,12,01,23.40
2015,06,27,12,02,23.40
2015,06,27,12,03,23.40
2015,06,27,12,04,23.40
2015,06,27,12,05,23.50
2015,06,27,12,06,23.60
2015,06,27,12,07,23.60
2015,06,27,12,08,23.70
2015,06,27,12,09,23.70
2015,06,27,12,10,23.80
2015,06,27,12,11,23.90
2015,06,27,12,12,23.90
2015,06,27,12,13,23.90
2015,06,27,12,14,23.90
2015,06,27,12,15,24.00
2015,06,27,12,16,24.00
2015,06,27,12,17,24.20
2015,06,27,12,18,24.20
2015,06,27,12,19,24.30
2015,06,27,12,20,24.30
2015,06,27,12,21,24.30
2015,06,27,12,22,24.30
2015,06,27,12,23,24.20
2015,06,27,12,24,24.20
2015,06,27,12,25,24.10
2015,06,27,12,26,24.00
2015,06,27,12,27,23.90
2015,06,27,12,28,23.90
2015,06,27,12,29,23.90
2015,06,27,12,30,24.00
2015,06,27,12,31,24.10
2015,06,27,12,32,24.10
2015,06,27,12,33,24.20
2015,06,27,12,34,24.30
2015,06,27,12,35,24.50
2015,06,27,12,36,24.60
2015,06,27,12,37,24.60
2015,06,27,12,38,24.70
2015,06,27,12,39,24.70
2015,06,27,12,40,24.70
2015,06,27,12,41,24.70
2015,06,27,12,42,24.70
2015,06,27,12,43,24.70
2015,06,27,12,44,24.70
2015,06,27,12,45,24.70
2015,06,27,12,46,24.70
2015,06,27,12,47,24.70
2015,06,27,12,48,24.70
2015,06,27,12,49,24.80
2015,06,27,12,50,24.80
2015,06,27,12,51,24.80
2015,06,27,12,52,24.80
2015,06,27,12,53,24.80
2015,06,27,12,54,24.90
2015,06,27,12,55,25.00
2015,06,27,12,56,25.10
2015,06,27,12,57,25.20
2015,06,27,12,58,25.40
2015,06,27,12,59,25.40
2015,06,27,13,00,25.40
2015,06,27,13,01,25.50
2015,06,27,13,02,25.50
2015,06,27,13,03,25.50
2015,06,27,13,04,25.40
2015,06,27,13,05,25.40
2015,06,27,13,06,25.40
2015,06,27,13,07,25.30
2015,06,27,13,08,25.30
2015,06,27,13,09,25.30
2015,06,27,13,10,25.40
2015,06,27,13,11,25.40
2015,06,27,13,12,25.50
2015,06,27,13,13,25.60
2015,06,27,13,14,25.60
2015,06,27,13,15,25.80
2015,06,27,13,16,25.90
2015,06,27,13,17,26.00
2015,06,27,13,18,26.00
2015,06,27,13,19,26.10
2015,06,27,13,20,26.30
2015,06,27,13,21,26.40
2015,06,27,13,22,26.50
2015,06,27,13,23,26.60
2015,06,27,13,24,26.60
2015,06,27,13,25,26.70
2015,06,27,13,26,26.90
2015,06,27,13,27,26.90
2015,06,27,13,28,26.90
2015,06,27,13,29,26.90
2015,06,27,13,30,27.00
2015,06,27,13,31,27.10
2015,06,27,13,32,27.20
2015,06,27,13,33,27.10
2015,06,27,13,34,27.10
2015,06,27,13,35,27.10
2015,06,27,13,36,27.10
2015,06,27,13,37,27.10
2015,06,27,13,38,27.10
2015,06,27,13,39,27.10
2015,06,27,13,40,27.20
2015,06,27,13,41,27.30
2015,06,27,13,42,27.30
2015,06,27,13,43,27.30
2015,06,27,13,44,27.40
2015,06,27,13,45,27.60
2015,06,27,13,46,27.70
2015,06,27,13,47,27.70
2015,06,27,13,48,27.90
2015,06,27,13,49,28.00
2015,06,27,13,50,28.10
2015,06,27,13,51,28.10
2015,06,27,13,52,28.10
2015,06,27,13,53,28.10
2015,06,27,13,54,28.10
2015,06,27,13,55,28.10
2015,06,27,13,56,28.10
2015,06,27,13,57,28.10
2015,06,27,13,58,28.10
2015,06,27,13,59,28.30
2015,06,27,14,00,28.40
2015,06,27,14,01,28.40
2015,06,27,14,02,28.50
2015,06,27,14,03,28.50
2015,06,27,14,04,28.50
2015,06,27,14,05,28.50
2015,06,27,14,06,28.50
2015,06,27,14,07,28.40
2015,06,27,14,08,28.40
2015,06,27,14,09,28.40
2015,06,27,14,10,28.40
2015,06,27,14,11,28.40
2015,06,27,14,12,28.40
2015,06,27,14,13,28.40
2015,06,27,14,14,28.40
2015,06,27,14,15,28.40
2015,06,27,14,16,28.40
2015,06,27,14,17,28.40
2015,06,27,15,24,29.80
2015,06,27,15,25,29.80
2015,06,27,15,26,29.80
2015,06,27,15,27,29.80
2015,06,27,15,28,29.90
2015,06,27,15,29,29.90
2015,06,27,15,30,29.90
2015,06,27,15,31,30.10
2015,06,27,15,32,30.30
2015,06,27,15,33,30.40
2015,06,27,15,34,30.40
2015,06,27,15,35,30.40
2015,06,27,15,36,30.40
2015,06,27,15,37,30.40
2015,06,27,15,38,30.40
2015,06,27,15,39,30.40
2015,06,27,15,40,30.40
2015,06,27,15,41,30.40
2015,06,27,15,42,30.50
2015,06,27,15,43,30.50
2015,06,27,15,44,30.60
2015,06,27,15,45,30.60
2015,06,27,15,46,30.60
2015,06,27,15,47,30.60
2015,06,27,15,48,30.60
2015,06,27,15,49,30.60
2015,06,27,15,50,30.60
2015,06,27,15,51,30.70
2015,06,27,15,52,30.70
2015,06,27,15,53,30.70
2015,06,27,15,54,30.80
2015,06,27,15,55,30.80
2015,06,27,15,56,30.80
2015,06,27,15,57,30.80
2015,06,27,15,58,30.80
2015,06,27,15,59,30.80
2015,06,27,16,00,30.80
2015,06,27,16,01,30.80
2015,06,27,16,02,30.80
2015,06,27,16,03,30.80
2015,06,27,16,04,30.80
2015,06,27,16,05,30.90
2015,06,27,16,06,30.90
2015,06,27,16,07,30.90
2015,06,27,16,08,30.90
2015,06,27,16,09,30.90
2015,06,27,16,10,30.90
2015,06,27,16,11,30.90
2015,06,27,16,12,30.90
2015,06,27,16,13,30.90
2015,06,27,16,14,30.90
2015,06,27,16,15,30.90
2015,06,27,16,16,30.90
2015,06,27,16,17,30.90
2015,06,27,16,18,30.90
2015,06,27,16,19,30.90
2015,06,27,16,20,31.00
2015,06,27,16,21,31.10
2015,06,27,16,22,31.10
2015,06,27,16,23,31.20
2015,06,27,16,24,31.20
2015,06,27,16,25,31.20
2015,06,27,16,26,31.20
2015,06,27,16,27,31.20
2015,06,27,16,28,31.30
2015,06,27,16,29,31.30
2015,06,27,16,30,31.30
2015,06,27,16,31,31.30
2015,06,27,16,32,31.30
2015,06,27,16,33,31.40
2015,06,27,16,34,31.40
2015,06,27,16,35,31.50
2015,06,27,16,36,31.50
2015,06,27,16,37,31.60
2015,06,27,16,38,31.60
2015,06,27,16,39,31.60
2015,06,27,16,40,31.70
2015,06,27,16,41,31.70
2015,06,27,16,42,31.70
2015,06,27,16,43,31.70
2015,06,27,16,44,31.70
2015,06,27,16,45,31.80
2015,06,27,16,46,31.80
2015,06,27,16,47,31.80
2015,06,27,16,48,31.80
2015,06,27,16,49,31.80
2015,06,27,16,50,31.80
2015,06,27,16,51,31.80
2015,06,27,16,52,31.70
2015,06,27,16,53,31.70
2015,06,27,16,54,31.60
2015,06,27,16,55,31.60
2015,06,27,16,56,31.60
2015,06,27,16,57,31.60
2015,06,27,16,58,31.70
2015,06,27,16,59,31.70
2015,06,27,17,00,31.80
2015,06,27,17,01,31.90
2015,06,27,17,02,31.90
2015,06,27,17,03,31.90
2015,06,27,17,04,31.90
2015,06,27,17,05,31.90
2015,06,27,17,06,31.80
2015,06,27,17,07,31.80
2015,06,27,17,08,31.80
2015,06,27,17,09,31.80
2015,06,27,17,10,31.90
2015,06,27,17,11,31.90
2015,06,27,17,12,31.90
2015,06,27,17,13,32.00
2015,06,27,17,14,32.00
2015,06,27,17,15,32.00
2015,06,27,17,16,32.00
2015,06,27,17,17,31.90
2015,06,27,17,18,31.80
2015,06,27,17,19,31.80
2015,06,27,17,20,31.70
2015,06,27,17,21,31.70
2015,06,27,17,22,31.70
2015,06,27,17,23,31.70
2015,06,27,17,24,31.60
2015,06,27,17,25,31.60
2015,06,27,17,26,31.60
2015,06,27,17,27,31.60
2015,06,27,17,28,31.60
2015,06,27,17,29,31.60
2015,06,27,17,30,31.60
2015,06,27,17,31,31.60
2015,06,27,17,32,31.60
2015,06,27,17,33,31.70
2015,06,27,17,34,31.70
2015,06,27,17,35,31.70
2015,06,27,17,36,31.70
2015,06,27,17,37,31.70
2015,06,27,17,38,31.70
2015,06,27,17,39,31.70
2015,06,27,17,40,31.70
2015,06,27,17,41,31.70
2015,06,27,17,42,31.70
2015,06,27,17,43,31.70
2015,06,27,17,44,31.70
2015,06,27,17,45,31.70
